sat.trackr.live / text

‹ back to catalog

STARLINK-33679

NORAD 63460 · 2025-070A

PAYLOAD ACTIVE UNKNOWN

§ Identity

Operator
Country
US
Launch date
2025-04-06
Launch site
AFETR
Launch vehicle
Mass (kg)
RCS (m²)

Purposes: comms

External: N2YO · Heavens-Above · Gunter

§ Orbital elements

Epoch: 2026-09-20T06:47:05.192736Z

Period
94.27 min
Inclination
42.9993°
Eccentricity
0.0001416
Mean motion
15.27587786 rev/d
Perigee alt
482.1 km
Apogee alt
484.0 km
Semi-major
6,861.2 km
B*
3.9079e-4
RAAN
241.1598°
Arg perigee
267.6540°
Mean anomaly
92.4150°
Rev number
8,273

§ Raw data

STARLINK-336791 63460U 25070A   26263.28269899  .00010509  00000+0  39079-3 0  99902 63460  42.9993 241.1598 0001416 267.6540  92.4150 15.27587786 82736

JSON: /api/v1/satellites/63460 · /tle

For live sub-satellite position, see the globe view (requires WebGL).

§ Visibility from observer

Set your observer location to see the next 7 days of passes ≥ 10°. The values pass through the URL so the page stays shareable.

No JS? Fill the form by hand. The geolocation button needs JavaScript.